Location: La Tine
(46.4708°N, 7.0525°E)
Time: 08:50:33
(UTC+00:00)

Meteor 1-24 Rocket - Pass Details

Date: 20 January 2021
Orbit: 790 x 927 km, 81.3° (Epoch: 24 February)

Event Time Altitude Azimuth Distance (km) Brightness Sun altitude
Exits shadow 04:35:51 42° 201° (SSW) 1,171 4.2 -25.8°
Drops below altitude 10° 04:39:38 10° 183° (S) 2,474 6.1 -25.1°
Sets 04:42:06 0° 181° (S) 3,427 6.9 -24.7°
